Other Public Products
Issued by NWS Charleston, SC

Current Version | Previous Version | Text Only | Print | Product List | Glossary Off
Versions: 1 2 3 4 5 6 7 8 9 10 11 12 13 14 15 16 17 18 19 20 21 22 23 24 25 26 27 28 29 30 31 32 33 34 35 36 37 38 39 40 41 42 43 44 45 46 47 48 49 50
851 FPUS82 KCHS 221027 OPUCHS TEST...KCHS/KSAV Gateway Observations...TEST National Weather Service Charleston SC 600 AM EDT FRI SEP 22 2017 NOTE: "fair" indicates few or no clouds below 12,000 feet with no significant weather and/or obstructions to visibility. SCZ050-WAZ558-NCZ071-TXZ119-213-PAZ071-DCZ001-FLZ074-172-MI076- NYZ176-178-MAZ016-IL014-TNZ027-NJZ106-GAZ044-MD014-221100- ...Gateway Observations for Charleston International... CITY SKY/WX TMP DP RH WIND PRES REMARKS Chas Airport PTCLDY 67 67 100 N3 30.02R Seattle CLOUDY 53 48 83 CALM 30.02S Charlotte CLEAR 68 67 96 CALM 30.07S Dallas DFW PTCLDY 76 71 85 S10 29.92S Dallas Love PTCLDY 76 71 85 S7 29.94S Philladelphia CLOUDY 71 58 63 N9 30.02S Wash National CLOUDY 70 66 87 N7 30.04R Baltimore MOCLDY 67 65 93 W3 30.03R Miami PTCLDY 80 78 94 NW3 29.87S Detroit MOCLDY 69 65 86 NE3 30.12R Newark CLOUDY 67 52 58 N14 30.01R Laguardia CLOUDY 68 50 52 N12 30.00R J F K CLOUDY 68 48 48 N16 29.99R Boston Logan LGT RAIN 57 56 96 N23G35 30.00S FOG Ft. Lauderdale PTCLDY 79 78 97 CALM 29.87R Chicago O`Hare PTCLDY 75 67 76 S6 30.05R Chicago Midway MOCLDY 76 67 73 SW5 30.05R Houston Bush PTCLDY 73 72 96 CALM 29.94S Houston Hobby PTCLDY 77 73 87 CALM 29.93S Nashville PTCLDY 68 67 96 CALM 30.05S FOG Atlanta PTCLDY 71 65 81 E7 30.05R $$ GAZ044-118-TXZ119-213-NCZ071-DCZ001-MDZ014-506-PAZ021-071-NJZ106- NYZ176-178-MAZ106-OHZ011-021-055-MIZ076-KYZ091-ILZ014-INZ047- MNZ060-ONZ431-221100- ...Gateway Observations for Savannah International... CITY SKY/WX TMP DP RH WIND PRES REMARKS Savannah Arpt PTCLDY 70 69 97 N3 30.02R Atlanta PTCLDY 71 65 81 E7 30.05R Charlotte CLEAR 68 67 96 CALM 30.07S Dallas DFW PTCLDY 76 71 85 S10 29.92S Houston Bush PTCLDY 73 72 96 CALM 29.94S Wash National CLOUDY 70 66 87 N7 30.04R Wash Dulles CLOUDY 68 63 84 N6 30.05S Baltimore MOCLDY 67 65 93 W3 30.03R Philadelphia CLOUDY 71 58 63 N9 30.02S Newark CLOUDY 67 52 58 N14 30.01R Laguardia CLOUDY 68 50 52 N12 30.00R J F K CLOUDY 68 48 48 N16 29.99R Boston LGT RAIN 57 56 96 N23G35 30.00S FOG Pittsburg MOCLDY 62 59 90 CALM 30.13R Akron CLEAR 68 60 75 E3 30.13R Cleveland PTCLDY 66 61 84 CALM 30.13R Cincinnati PTCLDY 68 68 100 CALM 30.10R Columbus MOCLDY 64 65 100 CALM 30.10S Detroit MOCLDY 69 65 86 NE3 30.12R Chicago O`Hare PTCLDY 75 67 76 S6 30.05R Minneapolis CLEAR 74 70 87 SE15 29.83S Indianapolis CLEAR 71 67 87 CALM 30.09R Toronto Canada CLEAR 63 59 88 NW3 30.14R $$

USA.gov is the U.S. government's official web portal to all federal, state and local government web resources and services.